Weather History for Fond du Lac, WI

Change the Weather History Date:

Monday, May 27, 2013

  Actual Average Record
Temperature  
Mean Temperature 54 °F -  
Max Temperature 57 °F 71 °F 92 °F (1978)
Min Temperature 51 °F 50 °F 35 °F (1971)
Degree Days  
Heating Degree Days 11    
Growing Degree Days 4 (Base 50)    
Moisture  
Dew Point 45 °F    
Average Humidity 75    
Maximum Humidity 92    
Minimum Humidity 43    
Precipitation  
Precipitation 0.07 in - - ()
Sea Level Pressure  
Sea Level Pressure 30.05 in    
Wind  
Wind Speed 11 mph (SE)    
Max Wind Speed 23 mph    
Max Gust Speed 31 mph    
Visibility 10 miles    
Events Rain    
Averages and records for this station are not official NWS values.
T = Trace of Precipitation, MM = Missing Value Source: NWS Daily Summary

Daily Weather History Graph

Daily Weather History Graph

Search for Another Location

Airport:

Trip Planner

Search our weather history database for the weather conditions in past years. The results will help you decide how hot, cold, wet, or windy it might be!

Date:

Astronomy

May. 27, 2013 Rise Set
Actual Time 5:17 AM CDT 8:25 PM CDT
Civil Twilight 4:43 AM CDT 8:59 PM CDT
Nautical Twilight 3:58 AM CDT 9:44 PM CDT
Astronomical Twilight 3:05 AM CDT 10:38 PM CDT
Moon 11:01 PM CDT (5/27) 7:56 AM CDT (5/27)
Length of Visible Light 16h 16m
Length of Day
15h 07m
Waning Gibbous, 91% of the Moon is Illuminated
May 27
Waning Gibbous
May 31
Last Quarter
Jun 8
New
Jun 16
First Quarter
Jun 23
Full

Hourly Weather History & Observations

Time (CDT) Temp. Dew Point Humidity Pressure Visibility Wind Dir Wind Speed Gust Speed Precip Events Conditions
12:53 AM 54.0 °F 33.1 °F 45% 30.18 in 10.0 mi East 9.2 mph - N/A   Overcast
1:53 AM 54.0 °F 32.0 °F 43% 30.15 in 10.0 mi ESE 5.8 mph - N/A   Overcast
2:53 AM 55.0 °F 33.1 °F 43% 30.14 in 10.0 mi ESE 6.9 mph - N/A   Overcast
3:53 AM 54.0 °F 35.1 °F 49% 30.10 in 10.0 mi ESE 9.2 mph - N/A   Overcast
4:53 AM 54.0 °F 37.0 °F 53% 30.11 in 10.0 mi East 9.2 mph - N/A   Overcast
5:53 AM 54.0 °F 37.9 °F 55% 30.10 in 10.0 mi ESE 4.6 mph - N/A   Overcast
6:53 AM 54.0 °F 37.9 °F 55% 30.11 in 10.0 mi SE 9.2 mph - N/A   Overcast
7:53 AM 53.1 °F 42.1 °F 66% 30.12 in 10.0 mi SE 5.8 mph - 0.00 in   Overcast
8:53 AM 54.0 °F 43.0 °F 66% 30.10 in 10.0 mi SE 8.1 mph - N/A   Overcast
9:53 AM 55.0 °F 48.9 °F 80% 30.07 in 7.0 mi SE 11.5 mph - 0.00 in Rain Light Rain
10:43 AM 57.2 °F 48.2 °F 72% 30.05 in 10.0 mi SE 12.7 mph - 0.00 in   Overcast
10:53 AM 57.0 °F 50.0 °F 77% 30.05 in 10.0 mi SE 18.4 mph 23.0 mph 0.00 in Rain Light Rain
11:27 AM 57.2 °F 51.8 °F 82% 30.05 in 10.0 mi SE 20.7 mph 27.6 mph 0.00 in   Overcast
11:53 AM 55.0 °F 50.0 °F 83% 30.07 in 10.0 mi SE 23.0 mph 31.1 mph 0.00 in   Overcast
12:53 PM 54.0 °F 51.1 °F 90% 30.07 in 10.0 mi SE 16.1 mph 24.2 mph 0.01 in   Overcast
1:53 PM 53.1 °F 48.0 °F 83% 30.06 in 10.0 mi SE 18.4 mph 26.5 mph N/A   Overcast
2:53 PM 53.1 °F 48.0 °F 83% 30.04 in 10.0 mi ESE 15.0 mph 24.2 mph N/A   Overcast
3:53 PM 53.1 °F 48.0 °F 83% 30.02 in 10.0 mi ESE 15.0 mph 23.0 mph N/A   Overcast
4:53 PM 52.0 °F 48.0 °F 86% 30.00 in 10.0 mi ESE 15.0 mph 19.6 mph N/A   Overcast
5:46 PM 51.8 °F 48.2 °F 88% 29.99 in 10.0 mi SE 13.8 mph - N/A   Overcast
5:53 PM 52.0 °F 48.9 °F 89% 29.99 in 9.0 mi ESE 12.7 mph 18.4 mph N/A   Overcast
6:53 PM 51.1 °F 48.9 °F 92% 29.99 in 6.0 mi SE 9.2 mph - 0.00 in Rain Light Rain
7:53 PM 51.1 °F 48.0 °F 89% 29.97 in 10.0 mi ESE 8.1 mph - 0.03 in Rain Light Rain
8:53 PM 51.1 °F 48.0 °F 89% 29.96 in 10.0 mi ESE 11.5 mph 19.6 mph 0.03 in Rain Light Rain
9:53 PM 51.1 °F 48.0 °F 89% 29.94 in 10.0 mi SE 9.2 mph - 0.00 in   Overcast
10:53 PM 51.1 °F 48.9 °F 92% 29.95 in 9.0 mi SSE 6.9 mph - N/A   Overcast
11:53 PM 51.1 °F 48.9 °F 92% 29.94 in 7.0 mi SE 9.2 mph - N/A   Overcast